Weather History for Ft Lauderdale, FL

Change the Weather History Date:

Saturday, October 6, 2012

  Actual Average Record
Temperature  
Mean Temperature 83 °F 82 °F  
Max Temperature 87 °F 87 °F 95 °F (1925)
Min Temperature 79 °F 77 °F 65 °F (1992)
Degree Days  
Heating Degree Days 0 0  
Month to date heating degree days 0 0  
Since 1 July heating degree days 0  
Cooling Degree Days 18 17  
Month to date cooling degree days 109 103  
Year to date cooling degree days 3823 3815  
Growing Degree Days 32 (Base 50)    
Moisture  
Dew Point 74 °F    
Average Humidity 77    
Maximum Humidity 91    
Minimum Humidity 63    
Precipitation  
Precipitation 0.00 in 0.28 in 3.75 in (1921)
Month to date precipitation 3.28 1.65  
Year to date precipitation 54.20 51.31  
Snow  
Snow 0.00 in - - ()
Month to date snowfall 0.0  
Since 1 July snowfall 0.0  
Since 1 September snowfall 0.0  
Snow Depth 0.00 in    
Sea Level Pressure  
Sea Level Pressure 29.92 in    
Wind  
Wind Speed 6 mph (East)    
Max Wind Speed 13 mph    
Max Gust Speed 16 mph    
Visibility 10 miles    
Events Rain    
T = Trace of Precipitation, MM = Missing Value Source: NWS Daily Summary

Daily Weather History Graph

Daily Weather History Graph

Search for Another Location

Airport:

Trip Planner

Search our weather history database for the weather conditions in past years. The results will help you decide how hot, cold, wet, or windy it might be!

Date:

Astronomy

Oct. 06, 2012 Rise Set
Actual Time 7:15 AM EDT 7:01 PM EDT
Civil Twilight 6:52 AM EDT 7:24 PM EDT
Nautical Twilight 6:25 AM EDT 7:51 PM EDT
Astronomical Twilight 5:58 AM EDT 8:17 PM EDT
Moon 11:40 PM EDT (10/6) 12:43 PM EDT (10/6)
Length of Visible Light 12h 32m
Length of Day
11h 45m
Waning Gibbous, 65% of the Moon is Illuminated
Oct 6
Waning Gibbous
Oct 8
Last Quarter
Oct 15
New
Oct 21
First Quarter
Oct 29
Full

Hourly Weather History & Observations

Time (EDT) Temp. Heat Index Dew Point Humidity Pressure Visibility Wind Dir Wind Speed Gust Speed Precip Events Conditions
12:53 AM 82.0 °F 88.6 °F 75.0 °F 79% 29.97 in 10.0 mi East 6.9 mph - N/A   Scattered Clouds
1:53 AM 82.0 °F 88.6 °F 75.0 °F 79% 29.95 in 10.0 mi East 5.8 mph - N/A   Scattered Clouds
2:53 AM 81.0 °F 86.7 °F 75.0 °F 82% 29.93 in 10.0 mi ESE 3.5 mph - N/A   Partly Cloudy
3:53 AM 80.1 °F 85.1 °F 75.0 °F 85% 29.91 in 10.0 mi East 5.8 mph - N/A   Partly Cloudy
4:53 AM 80.1 °F 85.1 °F 75.0 °F 85% 29.91 in 10.0 mi SE 3.5 mph - N/A   Partly Cloudy
5:53 AM 79.0 °F - 75.0 °F 88% 29.91 in 10.0 mi SE 3.5 mph - N/A   Scattered Clouds
6:53 AM 80.1 °F 85.1 °F 75.0 °F 85% 29.93 in 10.0 mi Calm Calm - N/A   Partly Cloudy
7:34 AM 78.8 °F - 75.2 °F 89% 29.93 in 10.0 mi Calm Calm - N/A   Mostly Cloudy
7:53 AM 80.1 °F 85.1 °F 75.0 °F 85% 29.94 in 9.0 mi Calm Calm - N/A   Scattered Clouds
8:53 AM 84.0 °F 91.9 °F 75.0 °F 74% 29.94 in 10.0 mi SE 5.8 mph - N/A   Scattered Clouds
9:53 AM 86.0 °F 93.8 °F 73.9 °F 67% 29.95 in 10.0 mi SSE 5.8 mph - N/A   Scattered Clouds
10:53 AM 87.1 °F 95.4 °F 73.9 °F 65% 29.94 in 10.0 mi East 8.1 mph - N/A   Scattered Clouds
11:53 AM 87.1 °F 94.5 °F 73.0 °F 63% 29.94 in 10.0 mi East 10.4 mph - N/A   Scattered Clouds
12:53 PM 87.1 °F 94.5 °F 73.0 °F 63% 29.92 in 10.0 mi SE 11.5 mph - N/A   Scattered Clouds
1:53 PM 86.0 °F 93.0 °F 73.0 °F 65% 29.91 in 10.0 mi ESE 10.4 mph - N/A   Scattered Clouds
2:53 PM 84.0 °F 90.2 °F 73.0 °F 69% 29.89 in 10.0 mi East 6.9 mph - N/A   Scattered Clouds
3:53 PM 82.9 °F 89.4 °F 73.9 °F 74% 29.87 in 10.0 mi SE 5.8 mph - N/A   Scattered Clouds
4:53 PM 84.0 °F 89.6 °F 72.0 °F 67% 29.87 in 10.0 mi East 6.9 mph - N/A   Scattered Clouds
5:53 PM 82.9 °F 88.8 °F 73.0 °F 72% 29.87 in 10.0 mi East 8.1 mph - N/A   Partly Cloudy
6:53 PM 82.9 °F 88.8 °F 73.0 °F 72% 29.89 in 10.0 mi East 6.9 mph - N/A   Partly Cloudy
7:53 PM 82.9 °F 88.8 °F 73.0 °F 72% 29.90 in 10.0 mi East 8.1 mph - N/A   Partly Cloudy
8:53 PM 82.0 °F 87.4 °F 73.0 °F 74% 29.92 in 10.0 mi ENE 10.4 mph - N/A   Scattered Clouds
9:53 PM 81.0 °F 86.7 °F 75.0 °F 82% 29.93 in 10.0 mi NE 3.5 mph - N/A   Scattered Clouds
10:53 PM 80.1 °F 85.1 °F 75.0 °F 85% 29.94 in 10.0 mi Calm Calm - 0.00 in Rain Light Rain
11:53 PM 79.0 °F - 75.9 °F 90% 29.94 in 10.0 mi North 3.5 mph - 0.02 in   Scattered Clouds